Date,TemperatureHighF,TemperatureAvgF,TemperatureLowF,DewpointHighF,DewpointAvgF,DewpointLowF,HumidityHigh,HumidityAvg,HumidityLow,PressureMaxIn,PressureMinIn,WindSpeedMaxMPH,WindSpeedAvgMPH,GustSpeedMaxMPH,PrecipitationSumIn
2014-1-1,38.5,28.6,21.2,27.8,20.7,14.9,79,72,57,30.35,30.19,4,1,7,0.00
2014-1-2,38.3,31.2,23.0,30.4,24.3,16.6,82,75,67,30.30,29.73,5,1,12,0.00
2014-1-3,44.2,36.1,28.0,34.9,26.6,18.5,86,69,47,30.01,29.61,17,5,32,0.13
2014-1-4,29.1,24.7,16.2,24.2,17.3,9.4,84,73,59,30.25,30.01,11,3,17,0.00
2014-1-5,19.9,12.5,6.8,12.2,-2.7,-9.5,72,50,41,30.59,30.26,16,9,24,0.00
2014-1-6,15.8,9.0,1.6,4.3,-1.6,-7.3,67,61,52,30.51,30.20,8,2,12,0.00
2014-1-7,22.8,18.2,11.1,15.6,8.7,3.0,78,66,58,30.20,30.05,5,2,8,0.00
2014-1-8,32.4,24.7,21.4,25.0,18.6,15.6,81,77,72,30.05,29.75,4,1,7,0.00
2014-1-9,41.0,34.1,27.0,31.1,25.7,21.0,86,72,54,29.87,29.69,6,1,18,0.12
2014-1-10,46.2,36.5,30.2,30.9,27.1,22.0,84,69,47,29.91,29.69,8,2,19,0.04
2014-1-11,45.5,40.0,35.4,37.3,28.9,21.3,85,66,42,29.87,29.39,20,4,37,0.13
2014-1-12,40.6,37.7,33.6,27.6,23.0,18.4,77,55,46,29.95,29.42,17,5,32,0.00
2014-1-13,48.4,44.7,37.6,31.7,28.4,26.6,68,53,45,30.30,29.90,17,7,34,0.00
2014-1-14,45.5,38.2,32.2,34.9,28.1,23.2,77,67,47,30.50,30.30,9,1,14,0.00
2014-1-15,45.3,36.8,27.0,31.1,26.4,18.7,78,66,48,30.40,30.28,6,1,14,0.00
2014-1-16,45.3,32.7,25.9,29.9,24.6,19.7,80,72,52,30.47,30.34,6,1,9,0.00
2014-1-17,38.5,28.2,21.2,27.8,20.9,15.8,80,74,62,30.34,30.26,5,1,9,0.00
2014-1-18,38.3,26.2,17.8,28.7,19.6,11.0,85,76,61,30.34,30.13,6,1,10,0.00
2014-1-19,28.4,26.0,21.2,24.5,21.2,16.3,85,82,80,30.30,30.08,5,1,9,0.00
2014-1-20,33.6,23.8,15.6,23.9,17.1,9.3,81,75,65,30.49,30.30,5,1,8,0.00
2014-1-21,26.4,24.4,23.2,20.6,19.5,18.3,83,81,77,30.44,30.29,6,2,9,0.00
2014-1-22,30.7,24.6,18.1,23.1,18.7,11.9,82,78,71,30.43,30.23,5,2,10,0.00
2014-1-23,32.4,28.1,22.6,25.8,22.7,17.6,85,80,75,30.52,30.43,7,2,11,0.01
2014-1-24,35.2,30.7,28.0,27.5,25.4,21.8,85,81,71,30.53,30.46,3,0,24,0.01
2014-1-25,33.4,30.6,29.3,26.4,24.9,24.0,83,79,73,30.47,30.22,3,1,8,0.00
2014-1-26,34.9,30.5,27.1,26.5,22.1,13.4,84,72,48,30.26,30.18,8,2,13,0.00
2014-1-27,34.0,22.6,13.6,16.1,10.1,4.8,69,58,40,30.34,30.24,8,2,14,0.01
2014-1-28,31.1,20.6,9.1,18.3,10.8,0.5,73,66,51,30.32,30.07,5,1,8,0.00
2014-1-29,31.5,26.7,24.3,24.8,20.4,15.6,84,77,65,30.07,29.63,5,2,11,0.00
2014-1-30,29.8,20.3,14.4,25.0,10.9,6.4,83,66,58,29.93,29.67,13,7,20,0.00
2014-1-31,19.8,15.8,11.8,10.3,7.0,3.7,73,68,59,30.04,29.90,6,2,11,0.00
2014-2-1,23.0,13.5,0.9,9.3,3.3,-8.7,72,63,49,30.15,30.04,6,1,11,0.00
2014-2-2,23.0,19.0,16.3,13.6,10.3,8.3,75,68,64,30.07,29.89,13,4,19,0.00
2014-2-3,22.5,15.1,4.3,12.9,-4.6,-22.1,67,42,26,30.26,29.88,14,5,23,0.00
2014-2-4,8.6,1.3,-7.1,-20.3,-25.6,-33.0,39,26,21,30.53,30.26,8,3,15,0.00
2014-2-5,5.5,-6.2,-19.7,-22.4,-30.6,-42.9,48,29,21,30.60,30.43,7,1,11,0.00
2014-2-6,0.0,-10.6,-20.7,-21.2,-28.5,-37.8,49,40,27,30.43,29.96,8,3,17,0.00
2014-2-7,10.9,-2.6,-16.4,-3.1,-15.6,-29.7,63,52,45,29.96,29.85,6,1,11,0.00
2014-2-8,19.9,7.1,-10.1,-1.3,-10.4,-22.4,61,45,28,30.16,29.92,12,3,19,0.00
2014-2-9,18.0,12.6,7.5,5.5,-2.5,-12.5,66,51,34,30.15,30.00,14,6,22,0.00
2014-2-10,18.5,14.9,8.2,10.7,5.4,-2.0,72,65,55,30.21,29.95,5,2,8,0.00
2014-2-11,45.0,30.0,17.8,30.1,16.9,10.0,83,60,34,30.08,29.84,14,3,27,0.05
2014-2-12,51.1,39.4,28.2,35.8,25.8,16.9,79,59,37,29.99,29.54,17,4,42,0.00
2014-2-13,44.8,38.4,30.2,34.8,25.8,20.5,85,61,41,30.00,29.64,21,6,41,0.12
2014-2-14,42.8,34.4,28.4,34.0,26.0,19.0,84,71,56,30.00,29.68,10,2,20,0.04
2014-2-15,45.1,34.8,27.0,30.7,25.8,18.8,86,71,43,29.99,29.56,6,1,13,0.12
2014-2-16,41.5,36.1,33.3,33.5,23.0,13.9,87,60,36,29.95,29.53,13,3,27,0.05
2014-2-17,44.4,38.1,31.5,31.8,25.5,16.2,84,61,43,29.89,29.61,10,3,25,0.02
2014-2-18,42.8,36.6,28.6,32.6,24.9,15.0,86,63,44,29.96,29.53,16,4,30,0.02
2014-2-19,39.9,34.1,25.3,31.8,14.2,5.4,80,44,27,30.00,29.55,13,6,36,0.01
2014-2-20,37.0,30.1,23.4,29.2,21.0,11.4,85,69,52,30.04,29.81,5,1,13,0.05
2014-2-21,35.2,26.9,19.8,24.9,18.0,4.0,84,69,29,30.06,29.87,16,3,28,0.02
2014-2-22,30.2,19.5,11.8,20.4,10.9,4.8,74,69,57,30.08,30.04,9,1,14,0.00
2014-2-23,20.3,14.9,9.5,10.5,2.6,-1.1,66,58,46,30.12,30.02,19,12,30,0.00
2014-2-24,16.7,12.1,8.2,7.4,-2.4,-12.0,72,52,35,30.30,30.06,18,8,31,0.00
2014-2-25,24.3,10.7,-1.8,6.1,-3.0,-11.5,69,54,35,30.42,30.25,8,1,16,0.00
2014-2-26,23.7,10.8,-3.3,11.9,0.9,-13.7,71,63,48,30.30,29.97,7,2,11,0.00
2014-2-27,27.9,22.6,16.7,19.9,14.4,9.0,80,70,54,29.96,29.70,4,1,8,0.00
2014-2-28,27.5,15.6,4.5,20.3,0.3,-23.7,79,52,24,30.11,29.77,13,7,22,0.00
2014-3-1,7.2,1.8,-2.2,-10.4,-22.8,-30.8,56,31,21,30.13,30.06,14,8,22,0.00
2014-3-2,8.6,2.4,-3.1,-1.2,-10.0,-17.7,64,55,46,30.06,29.89,16,9,24,0.00
2014-3-3,28.6,17.4,7.7,24.4,8.5,-2.2,84,67,57,29.93,29.80,6,2,11,0.00
2014-3-4,47.3,36.3,25.3,35.4,28.5,20.0,86,74,55,29.94,29.82,5,2,14,0.13
2014-3-5,46.6,39.5,34.9,38.0,32.1,27.5,86,75,64,29.94,29.67,7,2,18,0.17
2014-3-6,48.6,40.3,35.6,38.5,33.0,29.2,92,76,53,29.88,29.63,7,2,17,0.19
2014-3-7,45.1,39.7,34.0,33.5,30.5,26.6,78,70,54,30.25,29.89,6,2,13,0.00
2014-3-8,48.4,38.8,27.7,32.7,28.3,22.6,86,67,44,30.25,29.94,6,2,15,0.00
2014-3-9,57.7,46.9,38.5,42.6,36.3,30.5,85,67,50,29.94,29.84,13,4,20,0.02
2014-3-10,43.2,36.2,32.0,35.6,31.5,28.3,88,83,67,30.09,29.82,12,2,18,0.27
2014-3-11,45.1,34.7,26.2,37.1,27.9,20.9,90,77,52,30.42,30.10,8,2,16,0.01
2014-3-12,48.0,35.3,24.6,33.0,25.2,19.5,84,67,46,30.40,30.08,6,1,12,0.00
2014-3-13,50.2,37.2,25.5,31.8,24.9,18.9,80,63,38,30.08,29.98,4,1,10,0.00
2014-3-14,42.3,34.9,27.0,36.7,27.2,17.8,85,73,58,30.05,29.87,6,1,20,0.09
2014-3-15,48.2,37.8,29.8,32.9,28.1,23.6,80,69,42,30.37,30.05,9,2,17,0.00
2014-3-16,57.0,40.0,29.3,36.4,28.0,23.6,83,66,31,30.25,29.70,12,2,24,0.00
2014-3-17,42.8,36.8,33.3,36.0,31.7,28.8,89,82,63,30.02,29.55,12,3,22,0.12
2014-3-18,43.3,33.9,25.2,30.2,23.6,15.9,89,68,34,30.14,30.02,4,1,11,0.01
2014-3-19,44.8,34.5,26.1,31.3,24.9,17.2,86,69,42,30.12,29.86,8,2,17,0.04
2014-3-20,39.7,34.8,28.6,31.5,21.6,13.7,86,60,38,30.19,29.85,14,3,30,0.01
2014-3-21,36.7,29.4,24.1,24.7,16.4,7.5,83,59,42,30.26,30.18,12,8,21,0.00
2014-3-22,37.8,27.6,19.4,19.7,10.9,3.6,60,49,41,30.34,30.11,14,6,24,0.00
2014-3-23,46.4,34.8,25.7,33.3,24.1,8.9,83,66,28,30.21,30.10,6,2,16,0.00
2014-3-24,46.0,33.6,22.8,20.4,13.8,7.6,67,46,21,30.32,30.12,14,5,24,0.00
2014-3-25,50.5,37.5,25.0,32.8,20.8,14.0,69,52,29,30.12,29.62,11,3,19,0.00
2014-3-26,53.6,42.8,35.8,34.0,29.7,20.0,83,61,27,29.66,29.56,7,2,18,0.00
2014-3-27,42.8,35.5,29.7,36.1,28.1,20.8,86,74,58,29.83,29.59,8,2,14,0.04
2014-3-28,47.8,37.7,28.8,37.5,30.4,24.4,87,76,53,29.96,29.82,8,2,17,0.02
2014-3-29,56.5,45.0,38.3,38.3,32.5,22.2,91,65,30,29.82,29.75,15,3,28,0.00
2014-3-30,49.6,40.1,33.3,35.8,31.9,28.9,86,73,50,29.96,29.80,6,2,14,0.05
2014-3-31,49.6,38.8,30.6,35.1,27.6,18.8,87,67,34,30.01,29.85,11,3,17,0.01
2014-4-1,55.8,40.0,26.8,30.0,22.8,14.0,79,54,21,29.85,29.75,13,4,21,0.00
2014-4-2,51.1,39.6,29.5,31.8,24.3,14.4,73,55,25,29.94,29.77,9,3,12,0.00
2014-4-3,52.7,40.8,30.6,34.9,26.2,21.7,76,57,34,30.02,29.90,7,2,16,0.00
2014-4-4,53.8,43.5,37.0,39.3,31.1,23.2,83,63,33,29.90,29.80,15,2,26,0.02
2014-4-5,52.7,41.8,32.2,35.6,28.2,18.5,81,61,28,29.97,29.89,11,2,21,0.00
2014-4-6,56.5,45.4,38.1,40.8,32.5,24.2,95,64,31,30.17,29.92,16,3,30,0.11
2014-4-7,66.6,48.0,32.5,37.9,32.1,25.2,82,57,27,30.24,30.16,9,2,17,0.00
2014-4-8,75.2,51.9,32.2,42.1,31.7,16.3,95,57,12,30.18,29.87,11,2,21,0.00
2014-4-9,60.3,52.1,40.1,41.2,30.9,20.0,86,47,22,30.04,29.83,20,5,40,0.00
2014-4-10,62.4,48.5,33.1,33.9,24.7,15.7,75,42,17,30.06,30.00,7,2,17,0.00
2014-4-11,61.9,46.7,34.5,38.3,31.0,25.2,83,58,27,30.03,29.83,14,4,27,0.00
2014-4-12,43.0,35.5,26.6,39.4,28.7,15.3,100,79,42,30.20,29.90,15,4,24,0.19
2014-4-13,45.9,34.1,18.5,28.4,16.0,5.6,73,49,21,30.37,30.20,10,4,17,0.00
2014-4-14,57.6,39.8,21.9,37.2,22.7,15.6,78,53,24,30.29,29.92,5,2,15,0.00
2014-4-15,51.3,44.7,37.2,39.3,31.5,22.5,100,63,36,29.95,29.80,11,3,24,0.04
2014-4-16,51.4,39.9,28.8,38.6,34.4,27.2,100,83,41,30.02,29.95,7,2,17,0.00
2014-4-17,50.2,44.7,40.1,44.7,40.7,36.8,95,86,74,29.99,29.76,5,2,16,0.01
2014-4-18,52.0,45.9,41.7,43.6,30.8,18.1,96,59,29,30.02,29.75,12,4,32,0.00
2014-4-19,60.3,45.3,25.2,37.6,27.0,20.7,88,53,23,30.02,29.84,28,4,57,0.00
2014-4-20,55.8,46.9,36.5,39.1,31.0,19.6,96,57,26,30.24,29.97,13,2,23,0.02
2014-4-21,63.9,47.0,28.2,40.6,29.1,21.7,86,55,21,30.25,29.89,10,2,16,0.00
2014-4-22,54.7,46.0,37.8,45.8,36.8,31.5,92,71,41,29.90,29.65,12,3,19,0.09
2014-4-23,54.5,43.3,36.5,36.7,28.9,21.5,82,58,31,29.90,29.76,18,4,38,0.00
2014-4-24,52.0,41.7,36.5,46.4,38.2,31.0,96,87,77,29.90,29.83,5,2,11,0.07
2014-4-25,59.7,48.5,34.0,42.7,34.9,26.2,100,65,30,29.88,29.66,9,3,15,0.00
2014-4-26,50.4,43.5,40.1,42.6,39.1,34.9,95,85,56,29.69,29.63,10,5,17,0.19
2014-4-27,63.3,47.8,37.8,38.3,32.8,24.4,84,58,25,30.08,29.77,12,3,19,0.45
2014-4-28,54.9,44.3,36.7,36.1,28.0,17.1,80,55,25,30.36,29.89,11,3,27,0.00
2014-4-29,60.4,43.4,28.4,38.9,30.8,21.7,90,65,25,30.57,30.36,5,2,11,0.00
2014-4-30,64.9,47.5,30.2,39.1,30.9,17.4,90,58,17,30.53,30.27,10,2,15,0.00
2014-5-1,71.6,53.5,35.4,49.3,37.8,28.5,90,60,23,30.28,29.99,7,2,12,0.00
2014-5-2,79.9,60.8,41.9,45.8,38.8,24.5,94,52,14,29.99,29.79,14,3,23,0.00
2014-5-3,63.1,47.6,37.9,43.6,38.6,34.1,100,73,36,29.86,29.79,18,9,27,0.01
2014-5-4,59.9,46.6,37.8,45.9,40.1,31.8,100,81,36,29.83,29.78,8,2,18,0.04
2014-5-5,61.2,48.3,41.7,47.9,40.4,27.2,97,76,28,29.88,29.81,12,2,23,0.05
2014-5-6,56.7,46.3,37.6,43.2,35.8,28.9,94,69,43,29.93,29.82,10,2,17,0.00
2014-5-7,54.7,41.4,32.9,39.4,33.4,29.6,95,74,44,29.96,29.88,12,4,17,0.05
2014-5-8,61.3,45.3,29.5,43.1,34.4,28.2,96,69,33,29.90,29.69,6,2,13,0.00
2014-5-9,59.4,47.6,40.3,48.2,39.9,31.8,100,76,40,29.87,29.66,9,2,20,0.20
2014-5-10,58.5,45.6,37.8,43.4,39.0,32.8,94,78,51,30.10,29.86,14,3,22,0.05
2014-5-11,55.2,43.3,33.4,39.4,29.5,19.9,96,63,26,30.33,30.10,14,6,22,0.35
2014-5-12,57.2,43.3,27.5,41.0,31.5,22.8,88,65,36,30.43,30.33,6,2,11,0.00
2014-5-13,65.8,49.6,32.7,40.8,32.6,17.3,89,58,16,30.43,30.29,7,2,12,0.00
2014-5-14,70.3,54.4,42.1,48.7,39.2,31.3,86,60,32,30.34,30.17,5,2,10,0.00
2014-5-15,75.9,60.6,45.1,50.6,41.9,22.7,93,57,15,30.18,30.00,12,3,21,0.00
2014-5-16,68.7,58.0,48.0,50.6,45.9,41.3,88,65,47,30.11,29.95,13,3,20,0.02
2014-5-17,69.1,55.3,45.1,54.4,47.9,43.5,100,78,46,29.96,29.78,9,1,16,0.11
2014-5-18,64.2,51.8,39.7,49.4,43.9,39.2,100,76,41,29.80,29.67,19,3,32,0.00
2014-5-19,60.3,51.6,46.0,50.8,46.2,41.5,96,82,59,30.00,29.80,10,2,20,0.04
2014-5-20,69.4,52.8,38.8,49.5,43.5,37.5,100,75,34,30.05,29.96,4,2,9,0.00
2014-5-21,73.2,57.8,40.6,48.2,43.7,37.3,100,64,28,30.05,29.94,7,2,12,0.00
2014-5-22,78.6,61.1,44.8,52.9,45.4,38.2,93,60,25,30.08,29.97,7,2,12,0.00
2014-5-23,80.6,63.3,46.9,54.1,46.4,38.8,93,58,24,30.04,29.85,19,3,36,0.00
2014-5-24,62.6,58.7,54.9,54.2,51.4,48.1,95,78,59,30.03,29.97,4,1,7,0.01
2014-5-25,69.6,59.4,46.8,53.2,49.3,44.1,100,71,44,30.06,29.88,5,1,11,0.00
2014-5-26,66.2,58.8,47.7,55.0,46.7,28.0,83,65,27,30.06,29.92,9,3,17,0.00
2014-5-27,75.9,57.4,41.0,50.1,40.4,25.9,95,60,19,30.10,29.93,6,2,11,0.00
2014-5-28,62.8,55.4,51.1,53.3,48.2,33.9,100,78,48,30.03,29.88,16,4,27,0.20
2014-5-29,63.3,51.4,42.3,47.0,38.9,35.5,82,63,38,30.14,30.03,7,2,13,0.00
2014-5-30,74.8,54.5,36.0,43.9,34.4,14.4,97,56,11,30.16,29.96,6,2,11,0.00
2014-5-31,75.0,60.1,45.1,49.1,41.3,28.8,80,53,21,29.97,29.88,10,3,19,0.00
2014-6-1,72.7,60.3,45.0,52.9,44.0,38.6,89,57,32,30.00,29.93,8,2,18,0.00
2014-6-2,77.5,61.1,42.8,52.3,44.1,36.9,96,58,23,29.99,29.82,15,2,26,0.01
2014-6-3,65.8,56.7,50.5,56.5,50.1,41.5,100,80,43,29.97,29.80,14,3,27,0.32
2014-6-4,72.0,58.3,45.9,55.4,47.9,38.0,100,73,29,30.02,29.87,7,2,11,0.01
2014-6-5,74.7,61.5,45.5,50.2,37.7,16.3,92,49,12,29.98,29.87,10,4,20,0.00
2014-6-6,69.6,58.5,50.0,46.2,37.7,29.4,68,47,24,30.07,29.98,11,5,19,0.00
2014-6-7,71.1,56.3,39.9,48.9,38.7,29.1,89,56,22,30.08,30.01,6,2,11,0.00
2014-6-8,74.1,59.1,41.0,52.3,43.8,37.9,95,60,31,30.12,29.95,8,2,13,0.00
2014-6-9,79.9,65.4,46.6,51.6,41.4,29.0,87,46,18,29.96,29.85,12,3,21,0.00
2014-6-10,70.9,56.9,43.5,54.9,42.8,33.2,89,61,34,29.99,29.83,18,3,34,0.01
2014-6-11,73.0,56.4,38.3,48.6,41.1,24.4,100,63,18,30.06,29.96,8,3,12,0.00
2014-6-12,75.7,61.9,46.2,53.1,43.8,39.4,87,55,31,29.96,29.67,14,4,26,0.05
2014-6-13,63.3,52.8,47.1,52.3,48.2,42.3,100,85,54,29.88,29.74,12,2,22,0.52
2014-6-14,57.2,51.7,47.8,51.5,48.7,45.4,100,89,74,29.91,29.88,6,2,15,0.15
2014-6-15,63.7,53.5,45.1,51.9,47.1,40.7,100,80,45,29.90,29.75,7,2,15,0.07
2014-6-16,59.7,51.9,44.2,50.2,46.5,42.4,100,83,58,29.81,29.73,7,2,12,0.00
2014-6-17,51.3,43.9,37.2,48.9,42.8,36.5,100,96,87,30.02,29.79,5,1,9,1.49
2014-6-18,47.7,42.9,37.0,47.3,42.3,36.3,100,98,93,30.00,29.91,5,1,10,0.99
2014-6-19,73.4,56.0,44.2,54.7,46.3,38.6,100,75,32,29.96,29.89,9,2,17,0.40
2014-6-20,77.9,59.5,42.8,52.9,46.4,41.3,97,65,34,29.99,29.88,11,2,22,0.00
2014-6-21,75.9,63.1,50.2,52.5,43.5,23.2,77,52,16,30.03,29.95,9,2,17,0.00
2014-6-22,81.3,64.5,46.6,55.0,44.5,27.6,90,55,14,30.05,29.96,10,3,16,0.00
2014-6-23,82.9,65.5,49.8,56.4,49.3,31.3,89,60,16,30.08,29.96,8,2,13,0.00
2014-6-24,77.7,63.5,51.1,60.0,53.2,47.4,94,71,43,29.99,29.93,10,3,17,0.02
2014-6-25,79.2,65.2,51.4,59.5,50.4,37.9,96,63,24,29.99,29.81,6,2,14,0.00
2014-6-26,63.9,59.0,55.8,58.1,54.5,48.4,97,86,59,29.81,29.76,8,2,14,0.05
2014-6-27,64.4,57.8,52.3,59.6,54.6,49.0,100,89,68,29.82,29.78,5,1,13,0.31
2014-6-28,70.2,59.2,53.1,53.9,48.8,43.7,97,71,42,29.95,29.80,11,2,24,0.05
2014-6-29,71.6,57.9,49.6,53.7,47.3,38.2,96,72,32,30.08,29.93,14,4,27,0.05
2014-6-30,77.2,59.2,43.9,52.3,47.4,41.8,100,69,33,30.18,30.08,6,2,10,0.00
2014-7-1,82.8,66.2,47.7,57.9,50.6,43.0,97,63,26,30.19,30.00,8,2,17,0.00
2014-7-2,88.7,69.9,51.8,59.3,53.5,44.2,92,60,27,30.01,29.88,8,2,14,0.00
2014-7-3,88.2,72.5,56.8,62.9,56.1,46.0,92,60,31,29.98,29.85,8,2,14,0.00
2014-7-4,83.7,71.1,56.5,57.9,50.9,36.8,89,54,22,29.99,29.89,4,2,8,0.00
2014-7-5,86.7,70.2,59.7,56.6,50.0,39.4,82,52,23,30.08,29.91,8,2,13,0.00
2014-7-6,88.5,70.7,53.6,58.6,51.1,43.6,87,54,26,30.13,29.99,8,2,15,0.00
2014-7-7,87.6,72.8,60.4,58.5,54.1,47.2,80,54,31,30.14,30.02,9,3,16,0.00
2014-7-8,90.9,71.6,54.1,60.0,55.6,51.4,92,60,32,30.07,29.93,7,2,14,0.00
2014-7-9,91.0,73.1,56.3,65.4,56.1,46.2,96,60,22,29.96,29.80,8,2,17,0.00
2014-7-10,91.9,74.3,55.8,60.1,48.6,28.8,89,49,11,29.92,29.81,12,4,24,0.00
2014-7-11,86.2,73.3,58.1,57.9,52.5,45.4,77,50,27,30.08,29.92,9,3,17,0.00
2014-7-12,91.2,72.3,54.0,60.1,52.5,40.2,92,56,20,30.19,30.06,7,2,14,0.00
2014-7-13,95.4,73.6,55.2,59.5,51.8,38.0,84,51,16,30.20,30.08,8,2,12,0.00
2014-7-14,84.6,71.4,60.8,65.2,58.1,52.3,100,65,38,30.14,30.06,9,3,17,0.15
2014-7-15,79.9,68.2,58.3,65.7,61.1,57.0,100,80,46,30.10,29.99,7,2,11,0.00
2014-7-16,87.6,71.1,56.7,67.1,59.7,55.5,100,71,39,30.06,29.89,5,2,10,0.00
2014-7-17,94.6,73.4,57.2,65.8,54.5,37.1,94,58,14,29.90,29.75,14,3,24,0.00
2014-7-18,84.4,69.0,57.7,63.0,54.4,48.7,80,61,32,29.91,29.83,8,2,18,0.00
2014-7-19,78.1,64.8,54.9,58.8,51.5,47.2,81,63,41,29.91,29.86,8,2,20,0.00
2014-7-20,73.6,68.2,61.7,63.1,57.2,51.1,93,70,47,29.89,29.80,6,1,14,0.04
2014-7-21,83.5,69.1,58.3,63.5,54.5,31.1,100,65,16,30.05,29.83,7,2,17,0.01
2014-7-22,80.6,64.3,50.4,57.7,49.5,43.4,84,61,32,30.15,30.04,10,4,19,0.00
2014-7-23,87.6,70.7,58.6,60.8,56.8,52.0,96,65,34,30.16,29.81,17,4,30,0.01
2014-7-24,68.9,61.9,57.7,55.0,45.3,36.2,76,55,36,30.09,29.95,9,3,24,0.00
2014-7-25,79.0,65.8,53.8,48.6,42.9,36.3,72,46,26,30.07,29.99,12,4,22,0.00
2014-7-26,82.8,64.4,47.3,54.0,46.6,38.4,89,57,22,30.18,30.06,6,2,11,0.00
2014-7-27,89.4,67.9,47.8,55.2,46.9,32.9,88,53,14,30.24,30.12,7,2,15,0.00
2014-7-28,94.1,69.9,53.1,60.3,52.0,47.3,83,56,24,30.20,30.07,6,2,13,0.00
2014-7-29,96.4,73.6,53.2,58.0,52.2,41.0,86,51,16,30.16,30.03,9,2,16,0.00
2014-7-30,89.6,73.5,57.7,65.5,53.4,45.6,77,51,27,30.11,30.02,8,2,14,0.00
2014-7-31,94.8,73.0,53.4,65.0,51.5,41.2,84,51,19,30.13,30.00,6,2,11,0.00
2014-8-1,93.6,74.6,55.6,60.5,52.5,45.2,77,50,19,30.12,30.00,11,3,21,0.00
2014-8-2,91.9,73.9,60.3,62.8,56.1,49.2,87,57,28,30.14,29.99,14,3,21,0.00
2014-8-3,88.9,71.9,61.3,61.4,57.2,49.3,89,63,28,30.12,30.01,14,3,34,0.01
2014-8-4,90.9,74.6,61.2,66.5,53.8,31.3,75,51,12,30.07,29.92,10,4,20,0.00
2014-8-5,90.3,72.5,57.6,65.2,55.5,51.7,86,58,30,30.03,29.93,7,2,14,0.00
2014-8-6,92.7,72.4,53.4,57.9,50.1,30.9,90,52,13,30.02,29.90,5,2,12,0.00
2014-8-7,89.2,70.7,53.1,61.9,49.0,39.7,78,49,18,30.03,29.89,5,2,11,0.00
2014-8-8,83.8,70.2,52.7,59.6,48.6,38.1,83,50,22,30.00,29.90,11,3,21,0.00
2014-8-9,87.1,68.4,51.6,55.4,47.5,31.6,84,51,14,30.14,30.00,6,2,11,0.00
2014-8-10,90.9,69.3,49.6,54.9,46.6,36.2,85,49,16,30.20,30.10,6,2,12,0.00
2014-8-11,94.1,71.8,52.3,62.3,49.5,37.1,81,49,14,30.16,29.99,9,2,17,0.00
2014-8-12,87.1,71.9,59.0,65.3,54.4,46.3,73,55,34,30.01,29.91,9,2,16,0.00
2014-8-13,89.6,71.9,57.6,61.8,54.9,48.2,84,60,28,30.01,29.90,12,2,31,0.00
2014-8-14,79.7,67.3,60.6,64.9,60.0,57.0,100,79,49,30.04,29.94,8,2,14,0.00
2014-8-15,77.2,64.5,58.6,64.3,59.9,52.6,100,87,50,30.08,29.98,7,2,23,0.00
2014-8-16,69.3,60.4,52.9,63.2,57.6,52.8,100,91,74,30.09,30.04,4,1,10,0.00
2014-8-17,79.5,66.7,54.7,65.2,59.1,53.9,100,78,51,30.09,30.03,6,1,11,0.00
2014-8-18,82.4,67.4,53.1,65.7,57.9,52.9,100,74,44,30.06,29.83,7,2,13,0.00
2014-8-19,80.1,64.8,55.2,63.2,57.0,52.4,93,77,42,29.83,29.72,15,2,28,0.00
2014-8-20,75.0,63.2,57.2,60.5,56.7,51.2,100,81,57,29.92,29.78,10,3,20,0.00
2014-8-21,69.3,60.2,54.1,56.6,52.7,48.9,100,77,54,30.06,29.92,15,6,24,0.00
2014-8-22,61.5,57.6,54.0,56.9,50.2,43.6,95,77,60,30.14,30.02,9,4,15,0.00
2014-8-23,65.3,57.9,49.8,50.8,44.6,41.2,89,62,49,30.17,30.12,12,6,21,0.00
2014-8-24,67.8,55.3,41.7,50.1,45.7,41.5,100,73,42,30.13,30.03,7,2,14,0.00
2014-8-25,73.8,56.9,41.7,49.4,43.9,35.1,100,66,26,30.11,29.99,9,2,16,0.00
2014-8-26,78.4,59.9,43.5,59.4,49.8,41.9,97,72,43,30.12,30.02,6,2,11,0.00
2014-8-27,80.8,64.1,48.2,61.2,52.3,47.1,97,68,39,30.11,29.96,4,1,11,0.00
2014-8-28,82.9,67.4,50.5,59.3,47.9,34.0,93,56,19,30.01,29.92,11,3,19,0.00
2014-8-29,79.0,65.1,48.4,59.8,49.2,30.3,97,61,19,30.02,29.77,9,2,17,0.00
2014-8-30,75.0,67.4,59.5,53.4,41.9,33.1,67,41,24,29.85,29.80,12,3,26,0.00
2014-8-31,66.2,58.6,53.4,53.0,48.0,43.9,83,68,49,29.97,29.82,13,2,21,0.00
2014-9-1,72.1,58.7,49.8,53.7,46.6,38.0,97,68,31,30.02,29.95,9,2,17,0.00
2014-9-2,75.7,60.5,45.9,53.5,46.7,40.8,88,63,34,29.95,29.68,9,2,20,0.00
2014-9-3,59.9,53.9,47.3,49.3,45.2,36.0,100,74,46,30.08,29.66,8,2,17,0.00
2014-9-4,66.2,52.8,41.9,48.4,44.2,38.4,100,76,39,30.18,30.08,7,2,11,0.00
2014-9-5,72.9,53.7,37.4,51.7,42.4,34.4,100,70,28,30.26,30.15,8,2,17,0.00
2014-9-6,75.7,56.3,40.3,49.6,41.9,34.0,94,63,23,30.21,29.99,8,2,14,0.00
2014-9-7,82.4,58.5,40.5,51.3,43.0,33.9,94,60,26,30.00,29.79,6,2,11,0.00
2014-9-8,77.9,59.1,39.2,52.7,40.9,28.8,87,55,18,29.83,29.77,17,2,26,0.00
2014-9-9,57.4,49.2,44.6,41.3,35.0,30.7,87,58,45,30.09,29.83,20,12,34,0.00
2014-9-10,49.5,44.2,40.3,43.2,37.1,30.0,100,76,59,30.38,30.06,14,8,21,0.00
2014-9-11,55.9,43.4,31.3,32.5,27.1,16.4,80,55,25,30.45,30.32,8,3,16,0.00
2014-9-12,62.4,44.7,25.7,35.5,28.3,22.1,89,58,26,30.32,30.09,10,3,20,0.00
2014-9-13,65.7,52.1,39.0,42.9,33.6,26.6,81,51,25,30.18,30.00,12,3,17,0.00
2014-9-14,72.3,50.4,33.1,43.7,36.3,29.6,90,62,24,30.09,30.01,8,2,14,0.00
2014-9-15,77.0,54.6,36.9,46.9,38.8,30.4,91,59,23,30.10,29.98,6,2,11,0.00
2014-9-16,71.8,55.6,39.2,51.4,42.8,36.0,91,65,34,30.02,29.89,7,2,14,0.00
2014-9-17,76.3,60.9,46.0,54.4,48.7,43.8,93,67,38,29.91,29.75,6,1,14,0.00
2014-9-18,78.4,62.2,51.1,56.5,48.5,36.9,93,66,23,29.81,29.70,10,2,21,0.00
2014-9-19,75.0,65.6,54.3,55.4,49.7,45.2,85,59,38,30.10,29.80,11,4,26,0.00
2014-9-20,81.0,59.7,43.9,53.3,48.2,43.9,100,70,32,30.22,30.11,4,2,8,0.00
2014-9-21,82.2,60.4,45.1,55.0,47.2,43.5,95,66,31,30.14,29.94,9,2,14,0.00
2014-9-22,76.3,60.2,44.8,53.6,48.0,42.6,94,67,40,29.98,29.89,5,1,11,0.00
2014-9-23,77.0,63.5,53.1,56.8,51.9,47.3,95,68,42,30.02,29.90,6,1,9,0.00
2014-9-24,87.3,66.1,49.1,57.7,49.4,29.5,100,61,13,29.93,29.81,11,2,19,0.00
2014-9-25,75.9,61.4,44.6,55.0,47.8,40.7,95,64,33,29.93,29.78,10,2,21,0.00
2014-9-26,69.4,59.2,47.3,55.2,45.8,37.5,100,64,33,30.08,29.86,18,4,31,0.01
2014-9-27,59.7,52.8,43.3,47.9,43.8,40.9,95,72,53,30.16,30.05,13,4,21,0.00
2014-9-28,68.9,56.4,47.3,46.7,43.3,40.5,82,63,39,30.16,29.98,8,3,14,0.00
2014-9-29,59.5,55.2,48.9,52.6,47.7,43.2,88,76,65,29.98,29.78,5,2,15,0.00
2014-9-30,59.9,53.3,46.8,51.8,47.0,38.4,94,80,46,29.94,29.74,14,2,26,0.26
2014-10-1,57.6,50.1,41.9,50.1,40.5,31.5,100,73,38,30.04,29.94,10,2,20,0.00
2014-10-2,54.9,47.7,32.4,40.3,33.5,26.4,84,59,36,30.33,29.99,11,4,20,0.00
2014-10-3,61.0,41.0,25.9,44.1,32.5,22.8,92,73,42,30.39,30.21,7,2,12,0.00
2014-10-4,71.2,53.6,40.5,46.4,39.5,33.7,84,61,26,30.21,30.06,5,2,11,0.00
2014-10-5,73.4,54.9,41.0,49.6,43.5,38.8,93,68,37,30.14,30.01,5,1,11,0.00
2014-10-6,75.0,58.8,43.2,52.4,46.9,41.5,94,68,39,30.01,29.88,7,2,14,0.00
2014-10-7,78.4,61.8,47.7,54.9,48.6,40.1,94,65,26,29.97,29.87,8,2,17,0.00
2014-10-8,70.2,56.1,44.2,51.3,46.9,42.4,96,73,44,29.98,29.88,5,1,9,0.00
2014-10-9,69.1,55.4,43.5,53.7,47.8,43.5,100,77,50,30.06,29.98,9,2,17,0.00
2014-10-10,69.8,53.2,36.7,55.2,45.2,35.9,100,76,54,30.08,29.93,4,1,10,0.00
2014-10-11,62.4,55.0,45.1,51.1,44.9,40.5,97,70,52,29.94,29.77,14,2,30,0.07
2014-10-12,59.5,49.4,44.1,45.2,41.9,35.0,100,78,43,30.11,29.88,6,1,10,0.01
2014-10-13,60.8,50.2,39.4,47.9,41.4,36.9,94,73,54,30.12,29.85,8,2,16,0.00
2014-10-14,63.7,50.3,35.1,46.2,40.6,33.0,97,71,48,29.85,29.73,6,1,14,0.00
2014-10-15,60.1,50.3,40.1,47.9,40.8,36.7,88,71,49,29.94,29.60,8,2,17,0.00
2014-10-16,57.9,49.5,36.0,41.9,38.8,33.0,96,68,48,30.11,29.94,5,1,13,0.00
2014-10-17,55.4,42.7,28.9,44.3,37.1,28.7,100,82,55,30.09,29.93,7,2,14,0.00
2014-10-18,60.1,49.0,40.8,47.9,43.0,37.4,93,81,60,30.06,29.93,4,1,9,0.00
2014-10-19,60.1,46.7,35.1,50.9,43.4,34.8,100,89,63,30.05,29.88,5,1,10,0.00
2014-10-20,63.9,46.8,32.2,48.5,41.0,31.9,100,83,44,29.89,29.71,5,1,10,0.01
2014-10-21,57.7,49.2,42.3,50.2,44.4,38.1,100,84,61,29.99,29.71,8,1,17,0.21
2014-10-22,58.8,47.6,34.7,46.7,40.6,31.0,100,78,50,30.01,29.83,8,2,17,0.00
2014-10-23,59.0,52.4,47.8,53.2,45.6,39.0,96,79,52,29.92,29.77,13,2,27,0.33
2014-10-24,54.0,47.9,43.0,43.4,40.0,36.7,88,75,54,30.08,29.92,5,1,13,0.01
2014-10-25,53.6,45.5,39.6,47.2,42.1,37.7,97,88,71,30.04,29.61,6,2,11,0.00
2014-10-26,54.1,48.0,42.1,48.1,34.6,28.4,97,61,42,29.92,29.62,10,3,23,0.00
2014-10-27,48.2,41.1,32.0,44.6,32.0,24.2,94,71,47,30.14,29.92,11,2,17,0.01
2014-10-28,47.3,36.3,25.0,38.9,30.6,20.6,96,80,63,30.14,30.01,5,1,9,0.09
2014-10-29,56.1,44.3,39.0,49.5,42.3,38.8,100,93,65,30.21,30.00,6,1,14,0.28
2014-10-30,50.4,43.6,36.3,43.8,40.8,34.5,100,91,75,30.23,29.96,6,2,11,0.00
2014-10-31,50.0,41.1,34.7,46.2,39.7,33.7,100,95,85,29.96,29.76,3,1,8,0.00
2014-11-1,46.2,40.6,34.3,45.1,39.3,33.6,100,95,85,29.78,29.61,16,4,28,0.21
2014-11-2,41.4,38.0,34.2,39.2,35.0,30.0,96,89,66,30.08,29.66,16,4,27,0.61
2014-11-3,47.8,41.2,34.5,40.5,36.0,31.2,96,82,68,30.16,30.07,5,1,16,0.02
2014-11-4,50.0,47.2,43.5,42.8,40.8,38.1,92,78,70,30.12,29.98,4,1,14,0.02
2014-11-5,60.1,48.4,42.6,44.6,40.8,35.5,91,76,45,30.28,30.12,5,1,12,0.00
2014-11-6,61.9,50.5,40.5,47.4,42.7,38.3,94,76,49,30.21,29.87,11,2,24,0.01
2014-11-7,53.8,47.7,33.4,44.0,37.1,30.0,87,68,52,30.34,30.00,4,1,15,0.00
2014-11-8,51.6,39.4,27.5,39.8,33.4,24.2,92,80,64,30.30,29.97,5,1,8,0.00
2014-11-9,43.7,38.1,24.4,42.4,35.0,17.9,95,89,74,29.97,29.58,18,4,33,0.48
2014-11-10,28.9,23.6,15.6,20.8,11.6,-2.3,79,60,42,30.39,29.85,11,5,20,0.00
2014-11-11,20.7,12.0,4.6,0.0,-6.2,-10.9,62,44,26,30.53,30.39,6,2,13,0.00
2014-11-12,18.7,8.1,1.0,-1.7,-5.4,-11.2,66,55,25,30.55,30.36,9,2,14,0.00
2014-11-13,18.9,8.8,1.6,0.7,-3.2,-7.3,66,58,42,30.36,30.04,8,3,14,0.00
2014-11-14,25.9,13.1,0.1,5.0,-4.0,-9.7,67,48,24,30.22,30.04,11,4,17,0.00
2014-11-15,24.6,12.4,1.6,10.0,-0.0,-9.0,73,57,34,30.41,30.22,8,2,13,0.00
2014-11-16,30.2,16.1,7.9,16.8,6.8,-0.4,76,67,52,30.53,30.40,7,1,11,0.00
2014-11-17,28.6,15.2,6.3,16.9,7.0,-1.0,78,70,53,30.49,30.33,7,1,11,0.00
2014-11-18,28.6,21.1,14.9,18.9,13.2,8.8,78,71,61,30.33,30.20,6,2,11,0.00
2014-11-19,30.9,18.5,8.1,20.2,11.9,1.0,84,75,61,30.22,30.06,4,1,8,0.00
2014-11-20,29.1,24.8,21.6,26.8,20.7,15.6,91,84,78,30.06,29.97,6,3,11,0.00
2014-11-21,35.8,31.1,27.5,31.4,27.7,23.9,92,87,82,29.97,29.50,7,1,10,0.07
2014-11-22,46.4,40.0,33.4,38.2,27.9,19.8,96,64,42,29.81,29.40,21,5,35,0.06
2014-11-23,41.0,36.2,29.1,32.1,25.9,17.2,88,67,45,30.06,29.81,9,2,21,0.02
2014-11-24,44.1,35.7,31.6,30.2,27.5,23.7,84,73,47,30.24,29.99,4,1,12,0.01
2014-11-25,39.7,35.2,32.5,36.2,31.2,27.8,89,85,76,30.14,29.93,4,1,12,0.01
2014-11-26,34.2,32.5,31.1,31.8,30.1,28.9,92,91,87,30.14,30.00,3,0,5,0.06
2014-11-27,52.2,41.3,32.7,42.2,36.2,30.7,96,83,60,30.01,29.70,5,1,18,0.14
2014-11-28,53.6,48.3,44.1,41.4,37.9,35.0,78,67,55,29.69,29.27,7,3,18,0.05
2014-11-29,43.7,13.4,6.6,38.3,0.3,-15.3,85,56,33,30.03,29.25,29,15,44,0.02
2014-11-30,10.2,4.2,-1.8,-4.8,-7.9,-13.7,67,56,41,30.28,30.03,10,4,17,0.00
2014-12-1,15.8,9.1,-3.8,7.0,-0.4,-13.7,68,65,61,30.22,30.03,9,4,15,0.00
2014-12-2,23.2,17.3,12.0,15.5,9.4,4.2,78,71,63,30.19,30.06,7,4,12,0.00
2014-12-3,18.3,15.1,11.8,9.7,7.0,3.9,78,70,61,30.13,29.98,10,4,17,0.00
2014-12-4,21.9,18.3,14.7,17.3,11.9,7.9,82,76,69,30.07,29.93,6,4,11,0.00
2014-12-5,29.7,24.9,21.4,22.7,19.4,16.2,83,79,73,30.19,30.07,6,2,10,0.00
2014-12-6,39.9,31.3,21.9,35.4,28.0,17.9,92,87,79,30.15,30.04,3,0,11,0.08
2014-12-7,46.8,35.9,23.9,40.5,31.6,20.6,93,85,70,30.30,30.15,4,1,11,0.07
2014-12-8,34.3,28.3,20.7,30.6,24.9,17.2,91,87,85,30.25,30.15,3,0,7,0.00
2014-12-9,35.4,32.6,30.7,33.3,30.7,28.4,94,92,91,30.17,30.00,4,1,8,0.00
2014-12-10,40.3,34.9,30.4,36.8,32.2,28.0,93,90,84,30.04,29.65,6,1,11,0.00
2014-12-11,46.2,38.4,33.6,39.2,34.7,30.9,92,86,73,29.74,29.60,7,2,11,0.01
2014-12-12,44.6,37.1,29.8,38.9,33.7,27.8,92,87,74,29.73,29.65,4,1,8,0.00
2014-12-13,38.3,36.3,33.4,37.3,34.3,31.4,96,92,88,30.13,29.73,3,1,10,0.40
2014-12-14,37.4,32.2,23.9,33.9,29.5,20.4,93,89,82,30.22,30.12,6,1,11,0.05
2014-12-15,33.3,25.8,21.2,24.9,20.3,16.2,87,80,67,30.21,30.07,10,4,17,0.00
2014-12-16,30.9,25.5,19.4,22.4,19.1,14.9,84,76,67,30.07,29.98,9,3,16,0.00
2014-12-17,34.7,28.8,26.4,25.1,22.3,20.3,86,76,66,29.99,29.93,6,1,10,0.00
2014-12-18,36.1,31.6,28.6,30.6,27.6,24.7,89,85,76,30.00,29.96,2,1,5,0.00
2014-12-19,37.6,34.3,31.8,34.7,31.4,28.9,92,89,82,29.97,29.87,4,1,9,0.08
2014-12-20,35.6,33.2,28.6,31.8,29.6,25.8,90,87,82,29.97,29.59,4,1,8,0.05
2014-12-21,50.7,40.7,34.2,37.5,31.1,25.3,95,71,46,29.84,29.47,13,3,30,0.21
2014-12-22,45.0,38.0,31.3,33.1,25.0,20.5,85,60,42,30.23,29.82,11,4,20,0.00
2014-12-23,39.0,31.0,22.1,30.0,22.8,16.9,85,72,52,30.28,29.93,4,1,8,0.00
2014-12-24,35.1,33.2,32.5,31.6,30.2,25.8,92,88,74,29.93,29.56,11,4,21,0.28
2014-12-25,33.1,27.2,22.1,26.0,21.6,17.4,84,79,70,30.03,29.72,10,3,16,0.00
2014-12-26,30.4,24.7,17.1,23.5,19.7,12.3,85,81,71,30.19,30.02,10,1,15,0.00
2014-12-27,32.7,28.3,20.8,27.9,23.2,16.9,90,81,67,30.18,29.83,6,1,13,0.00
2014-12-28,29.7,25.5,16.3,27.1,16.6,1.1,90,70,49,30.32,29.82,11,4,19,0.00
2014-12-29,16.7,9.3,-5.8,1.9,-10.2,-21.0,55,40,28,30.69,30.32,8,2,14,0.00
2014-12-30,5.2,-0.5,-11.2,-9.5,-15.8,-25.2,57,47,36,30.76,30.61,12,4,19,0.00
2014-12-31,11.7,6.5,1.9,-2.0,-6.3,-12.0,65,55,43,30.61,30.37,6,2,11,0.00
2015-1-1,12.4,8.8,6.4,2.9,-0.9,-3.7,68,63,59,30.38,30.21,5,3,9,0.00
2015-1-2,18.3,14.7,11.7,10.8,6.6,2.3,74,69,63,30.21,29.93,7,3,11,0.00